Location: Dana
(41.8364°N, 106.7042°W)
Time: 15:18:39
(UTC+00:00)

Transit 2A - Pass Details

Date: 13 May 2026
Orbit: 595 x 948 km, 66.7° (Epoch: 8 June)

Event Time Altitude Azimuth Distance (km) Brightness Sun altitude
Rises 21:29:15 0° 161° (SSE) 3,598 9.5 51.3°
Reaches altitude 10° 21:32:47 10° 142° (SE) 2,639 8.8 50.7°
Maximum altitude 21:36:28 17° 105° (ESE) 2,167 8.2 50.0°
Drops below altitude 10° 21:40:05 10° 68° (ENE) 2,563 8.4 49.4°
Sets 21:43:25 0° 48° (NE) 3,448 9.0 48.8°
